#timestamp,LO_Frequency,Hit,StdDev 
1598090415.6,286047000.5,N
1598090435.5,286047000.2,N
1598090455.3,286047002.6,N
1598090475.2,286046999.9,N
1598090495.9,286047000.1,N
1598090515.7,286046999.9,N
1598090535.6,286047000.8,N
1598090555.4,286046999.3,N
1598090575.2,286046999.4,N
1598090595.1,286046999.0,N
1598090596.0,286046999.0,N
1598090615.8,286046998.7,N
1598090635.7,286047000.8,N
1598090655.5,286047000.0,N
1598090675.3,286046999.8,N
1598090695.2,286047000.2,N
1598090715.0,286046999.7,N
1598090715.9,286046999.7,N
1598090735.7,286046999.7,N
1598090755.6,286047002.5,N
1598090775.4,286047002.8,N
1598090795.3,286047002.8,N
1598090815.1,286046999.7,N
1598090816.0,286046999.7,N
1598090835.8,286047002.8,N
1598090855.7,286047002.7,N
1598090875.5,286047002.8,N
1598090895.3,286047000.1,N
1598090915.2,286047002.4,N
1598090935.0,286047002.2,N
1598090935.9,286047002.2,N
1598090955.8,286047001.5,N
1598090975.6,286047002.0,N
1598090995.4,286047002.5,N
1598091015.3,286047002.3,N
1598091035.1,286047001.9,N
1598091055.8,286047003.9,N
1598091075.7,286047003.7,N
1598091095.5,286047001.4,N
1598091115.4,286047001.3,N
1598091135.2,286047001.7,N
1598091155.0,286047001.8,N
1598091155.9,286047001.8,N
1598091175.8,286047001.5,N
1598091195.6,286047004.3,Y
1598091215.5,286047000.0,P
1598091235.3,286047002.6,P
1598091255.1,286047002.3,N
1598091275.9,286047002.6,N
1598091295.7,286047002.4,N
1598091315.5,286047000.1,N
1598091335.4,286047002.6,N
1598091355.2,286047000.1,N
1598091375.1,286047000.2,N
1598091376.0,286047000.2,N
1598091395.8,286047000.2,N
1598091415.6,286047002.5,N
1598091435.5,286047002.8,N
1598091455.3,286047002.2,N
1598091475.2,286047002.8,N
1598091495.9,286047002.1,N
1598091515.7,286047001.9,N
1598091535.6,286047002.3,N
1598091555.4,286047001.9,N
1598091575.2,286047002.3,N
1598091595.1,286047001.4,N
1598091596.0,286047001.4,N
1598091615.8,286047001.4,N
1598091635.7,286047001.5,N
1598091655.5,286047003.9,Y
1598091675.3,286047000.2,P
1598091695.2,286047002.4,P
1598091715.0,286046999.7,N
1598091715.9,286046999.7,N
1598091735.8,286047002.3,N
1598091755.6,286047001.0,N
1598091775.4,286046999.9,N
1598091795.3,286047001.5,N
1598091815.1,286047002.9,N
1598091835.9,286047001.5,N
1598091855.7,286047002.3,N
1598091875.5,286047002.6,N
1598091895.4,286046999.8,N
1598091915.2,286047000.4,N
1598091935.1,286047000.4,N
1598091936.0,286047000.4,N
1598091955.8,286047000.6,N
1598091975.6,286046999.9,N
1598091995.5,286047002.4,N
1598092015.3,286047002.8,N
1598092035.1,286047000.4,N
1598092055.9,286047000.3,N
1598092075.7,286047000.0,N
1598092095.6,286047000.4,N
1598092115.4,286047001.0,N
1598092135.2,286047000.9,N
1598092155.1,286046998.2,N
1598092156.0,286046998.2,N
1598092175.8,286046998.2,N
1598092195.7,286046998.6,N
1598092215.5,286046998.6,N
1598092235.3,286047001.2,N
1598092255.2,286047001.1,N
1598092275.0,286047000.4,N
1598092275.9,286047000.4,N
1598092295.7,286047000.5,N
1598092315.6,286047000.6,N
1598092335.4,286047000.2,N
1598092355.3,286046999.9,N
1598092375.1,286047000.7,N
1598092376.0,286047000.7,N
1598092395.8,286047000.0,N
1598092415.7,286047000.0,N
1598092435.5,286047000.4,N
1598092455.4,286047000.6,N
1598092475.2,286047000.3,N
1598092495.0,286046999.9,N
1598092495.9,286046999.9,N
1598092515.8,286047002.4,N
1598092535.6,286046999.9,N
1598092555.5,286047000.1,N
1598092575.3,286047000.4,N
1598092595.1,286047000.2,N
1598092615.9,286047000.4,N
1598092635.7,286047000.0,N
1598092655.5,286047001.0,N
1598092675.4,286046998.2,N
1598092695.2,286046998.6,N
1598092715.1,286046998.7,N
1598092716.0,286046998.7,N
1598092735.8,286047000.7,N
1598092755.6,286047000.4,N
1598092775.5,286047000.8,N
1598092795.3,286047000.6,N
1598092815.2,286047000.3,N
1598092835.9,286047002.4,N
1598092855.7,286047002.1,N
1598092875.6,286047001.9,N
1598092895.4,286047001.9,N
1598092915.2,286047001.5,N
1598092935.1,286047002.0,N
1598092936.0,286047002.0,N
1598092955.8,286047001.6,N
1598092975.7,286047002.1,N
1598092995.5,286047002.1,N
1598093015.4,286047001.3,N
1598093035.2,286047001.3,N
1598093055.0,286047002.2,N
1598093055.9,286047002.2,N
1598093075.8,286047003.9,Y
1598093095.6,286047004.4,P
1598093115.4,286047003.8,N
1598093135.3,286047003.4,N
1598093155.1,286047001.7,N
1598093175.9,286047001.7,N
1598093195.7,286047005.6,Y
1598093215.5,286047002.3,P
1598093235.4,286047000.4,N
1598093255.2,286047001.2,N
1598093275.0,286047001.1,N
1598093276.0,286047001.1,N
1598093295.8,286046999.9,N
1598093315.6,286047002.3,N
1598093335.5,286047002.7,N
1598093355.3,286046999.8,N
1598093375.1,286047000.0,N
1598093395.9,286047000.2,N
1598093415.7,286047001.1,N
1598093435.5,286047001.2,N
1598093455.4,286047000.9,N
1598093475.2,286047001.6,N
1598093495.1,286047002.3,N
1598093496.0,286047002.3,N
1598093515.8,286047000.3,N
1598093535.6,286046999.7,N
1598093555.5,286047000.6,N
1598093575.3,286046998.2,N
1598093595.1,286047001.1,N
1598093615.9,286047000.2,N
1598093635.7,286047002.3,N
1598093655.6,286047002.7,N
1598093675.4,286046999.8,N
1598093695.2,286046998.9,N
1598093715.1,286046996.6,N
1598093716.0,286046996.6,N
1598093735.8,286046998.9,N
1598093755.6,286046999.3,N
1598093775.5,286046998.4,N
1598093795.3,286046998.4,N
1598093815.2,286046998.8,N
1598093835.9,286046998.8,N
1598093855.7,286046999.0,N
1598093875.6,286046999.4,N
1598093895.4,286046999.5,N
1598093915.3,286046999.2,N
1598093935.1,286046999.4,N
1598093936.0,286046999.4,N
1598093955.8,286046999.1,N
1598093975.7,286046996.7,N
1598093995.5,286046998.9,N
